Location: Asheville, NC
(35.6000°N, 82.5500°W)
Time: 19:00:11
(UTC-04:00)

Vanguard 1 - Pass Details

Date: 08 December 2017
Orbit: 650 x 3833 km, 34.2° (Epoch: 23 April)

Event Time Altitude Azimuth Distance (km) Brightness Sun altitude
Rises 15:51:10 0° 281° (W) 5,360 14.4 13.5°
Reaches altitude 10° 15:55:29 10° 278° (W) 3,846 13.8 12.9°
Maximum altitude 16:04:07 53° 204° (SSW) 1,251 11.4 11.5°
Drops below altitude 10° 16:09:18 10° 128° (SE) 2,340 11.9 10.7°
Sets 16:11:21 0° 122° (ESE) 3,118 12.5 10.4°
